Location: Robert Brownlee Observatory
(34.2308°N, 117.2089°W)
Time: 09:45:40
(UTC-07:00)

Cosmos 1943 - Visible Passes

Search period start: 21 October 2014 00:00
Search period end: 31 October 2014 00:00
Orbit: 836 x 849 km, 71.0° (Epoch: 21 October)

Date Brightness Start Highest point End Pass type
(mag) Time Alt. Az. Time Alt. Az. Time Alt. Az.
24 Oct 5.7 06:27:55 10° NNE 06:31:56 20° ENE 06:35:56 10° ESE visible
25 Oct 5.7 06:13:10 10° NNE 06:17:03 19° ENE 06:20:55 10° E visible
26 Oct 5.7 05:58:25 10° NNE 06:02:09 18° ENE 06:05:52 10° E visible
27 Oct 5.8 05:43:42 10° NNE 05:47:16 17° ENE 05:50:50 10° E visible
28 Oct 5.8 05:28:58 10° NNE 05:32:23 16° NE 05:35:46 10° E visible
28 Oct 5.1 20:14:49 10° S 20:16:02 17° S 20:16:02 17° S visible
29 Oct 5.8 05:14:16 10° NNE 05:17:29 15° NE 05:20:42 10° E visible
29 Oct 4.2 20:00:01 10° S 20:03:02 32° SSE 20:03:02 32° SSE visible
30 Oct 5.9 04:59:34 10° NNE 05:02:35 15° NE 05:05:36 10° E visible
30 Oct 3.2 06:41:35 10° NNW 06:47:11 71° WSW 06:52:46 10° SSE visible
30 Oct 3.3 19:45:12 10° S 19:50:03 50° SE 19:50:03 50° SE visible
30 Oct 5.9 21:31:04 10° WSW 21:31:59 13° W 21:31:59 13° W visible
